Vertical_Velocity
0 -1 0 -1 -1 2 -1 -2 1 0 -1 -2 -1 0 0 0 -1 -8 -2 0 -2 -1 2 3 2 1 1 0 -1 -0 0 -1 -2 -1 -0 -1 -2 -1 0 -1 -1 -1 1 1 -1 0 1 2 1
-0 -1 -1 0 0 4 -12 -1 -2 1 1 -1 -2 -2 0 -2 1 -1 -0 2 1 -1 1 0 1 1 0 -0 -0 -2 -1 0 1 1 0 -1 -1 -0 -1 -1 -0 0 0 0 -0 -1 -0 -0 -0
-1 -0 -2 -2 1 3 -3 -2 -1 0 1 1 3 1 -2 1 -1 0 -0 -0 -1 -0 -1 -0 0 1 0 1 1 0 -2 -1 -1 0 2 2 0 -1 -1 -1 -0 -1 -0 0 0 0 -1 -1 -1
-2 -2 -1 -1 -4 1 -1 -1 1 1 0 2 2 3 -0 -2 -1 0 1 1 1 1 -2 -2 -1 -0 1 -0 1 1 -0 -0 -1 -1 -0 -0 2 1 0 -0 0 -1 -2 -0 0 0 0 -0 -1
-1 -2 -1 0 -1 -1 1 -1 0 -0 4 2 -2 2 3 1 -0 -0 -1 -0 0 0 -1 -1 -3 1 -0 1 -0 -0 1 0 -0 -1 -1 -0 -0 1 2 2 0 0 -0 -0 2 -0 -1 -1 0
-1 -1 0 3 -2 1 0 1 -1 1 0 2 1 -0 -0 2 1 1 -0 0 0 1 2 2 -0 -2 -2 -2 -1 -1 -1 0 -1 -1 -2 -1 1 1 1 1 2 -0 1 0 1 -0 -1 -0 1
-1 -1 1 1 -0 -0 1 3 1 0 2 1 0 1 3 0 -1 -2 1 2 0 3 4 2 0 -0 -5 -4 -2 0 0 -0 -1 -2 -1 -2 -2 1 2 2 1 2 -0 -0 0 0 0 -0 0
-1 -2 1 1 -2 1 2 2 2 -1 -2 2 2 -4 -4 -0 -0 1 1 1 -0 1 3 1 2 2 2 0 -2 -2 1 0 0 -1 -0 -0 -2 -2 -1 1 2 1 1 1 1 2 1 -0 -1
-0 -1 1 -2 -2 -2 1 1 1 -0 -2 2 2 -1 2 3 0 0 1 2 0 1 2 3 0 1 1 1 0 -1 -2 -1 0 -0 0 -1 -2 -1 -2 -3 -0 1 1 0 1 3 2 1 0
-1 1 -2 -0 0 -1 -1 1 -1 -3 -0 -0 -1 1 1 1 1 1 2 -0 1 2 -1 2 3 3 3 0 1 1 0 -0 -2 -2 0 0 1 1 0 -0 -2 -3 -1 -1 -0 -0 1 3 1
1 -1 -4 1 -3 1 2 2 -0 -1 -6 -2 0 -0 -2 -1 -2 3 3 -1 3 2 0 2 2 2 3 2 -1 -0 -1 -3 -4 -2 -1 1 -0 -2 -2 -0 0 -2 -4 -3 -1 2 3 4 4
-0 -1 -4 -2 -3 -3 -2 2 2 1 -0 3 -3 -3 -3 -5 -2 1 1 1 4 1 1 -2 -1 0 3 1 5 4 -4 0 -2 -1 -2 -3 4 4 5 -2 -3 2 -2 -1 3 3 2 2 2
1 1 -1 -2 -4 -3 -3 -3 4 1 -4 -0 1 -2 -0 -4 -0 -3 0 -2 -1 2 1 -0 0 -0 -1 0 1 4 9 6 -2 -1 -4 -4 -6 -2 0 1 2 -4 -3 2 3 -1 4 5 3
4 2 -1 -2 -3 -3 -2 -5 -1 4 -0 -0 0 -3 -9 14 4 1 0 -3 -2 1 -2 -3 -1 2 3 2 -2 2 2 2 9 -2 -2 -1 -0 -2 -4 -0 -1 -1 -1 1 -2 -1 2 6 2
2 3 -2 1 -2 -2 1 -6 -6 -2 -2 -2 -2 -6 -6 0 0 6 3 2 3 -1 -0 -2 -1 -2 0 -0 -1 0 1 -0 -4 2 3 -4 0 -1 -1 -3 -0 -1 -3 1 1 -1 3 4 2
1 3 2 10 -3 2 4 -8 -3 -0 -1 3 -2 -8 -9 2 2 1 3 5 4 4 6 9 5 3 1 1 1 -1 1 1 0 -2 -1 -3 -2 -1 1 -2 -7 1 3 -1 -4 -2 1 2 0
1 -3 18 -3 -5 -9 5 -1 -3 -3 4 8 -4 -4 -7 -2 -3 -1 -0 0 1 2 1 0 -1 1 1 1 -1 3 3 1 2 1 1 -0 -2 -3 1 -0 1 -7 -5 1 -5 0 2 5 4
-6 7 3 5 -12 -4 -2 0 5 -5 3 6 -2 2 -2 -2 -1 -2 -2 -0 -1 -0 2 2 2 -0 2 -1 1 -1 -2 -2 -1 -0 -2 0 1 -2 -4 -2 1 3 -0 -4 -1 -3 -4 -1 -2
-1 -0 4 -5 -4 0 1 1 -7 8 -1 0 2 1 -2 -3 -0 -0 -2 -2 -3 -3 -3 -1 1 2 8 4 1 2 1 -3 -4 -4 -4 -2 0 3 -2 -7 -4 1 1 -1 -1 -2 -1 -3 -3
-1 -3 3 2 -3 3 -6 3 1 -1 3 4 -1 -3 -0 0 -5 -6 -6 -4 -4 -6 -4 -7 -5 -5 -1 -5 1 0 -0 -3 -3 1 -1 1 2 -0 -1 -1 -1 -2 2 1 -2 -3 -1 1 -0
-4 -3 -3 3 -2 -4 3 -2 7 2 6 -1 -3 -5 -5 -2 0 1 0 -3 -2 -3 -3 -2 -1 -2 -2 0 -0 -2 5 2 0 1 -1 3 3 2 2 4 9 2 -0 2 -1 -3 -2 0 3
-3 6 -6 -2 1 3 13 -7 -19 -10 20 -0 1 -2 -0 -1 1 -0 -0 -0 1 -1 1 -2 -2 -6 -5 -2 -4 -4 2 1 5 2 6 3 -0 -2 -3 2 -3 -2 -0 3 0 -4 -2 -3 6
-10 -4 -2 -2 -2 -9 3 -7 -2 -4 4 2 -0 -4 -5 -6 -4 -4 -5 -4 -3 -0 -1 -2 -2 3 -2 -3 -5 -7 -3 6 4 2 3 -0 -2 1 1 1 -0 -0 -1 -0 2 1 -1 -4 4
-4 -4 -3 -1 -1 -13 -3 0 19 -1 7 -0 -7 -4 -3 -3 -2 -3 -5 -5 -6 -5 -3 -2 -2 -3 -4 -0 2 -6 -1 1 1 -0 -3 -1 4 1 -0 3 1 1 4 3 0 1 1 -1 -1
-2 -4 -5 -6 -3 3 -6 -13 18 -9 3 -1 -1 -3 -1 -4 -5 -5 -6 -7 -6 -3 -1 1 -2 -3 -3 2 -0 -1 -4 -2 2 -3 8 -4 -2 2 3 3 -0 0 1 2 -1 2 2 -1 -1
6 -4 5 -13 -11 5 1 -10 -19 8 9 2 -2 -2 -2 -3 -4 -5 -4 -3 -2 -0 1 0 -1 -2 -2 -3 -1 1 5 2 -3 -3 1 -0 2 24 -6 2 0 -2 3 2 2 4 3 -0 1
-2 -5 5 -7 -4 -12 5 -5 -1 12 2 4 -2 -4 -4 -4 -3 -5 -4 -3 -3 -2 -4 -3 -1 2 -5 -2 4 -1 8 2 -3 0 -0 -0 -1 11 -2 -2 1 -2 -2 2 3 5 -0 2 3
2 -5 0 -0 -9 -5 -12 -17 8 -1 13 1 -1 -1 -3 -5 -4 -4 -3 -3 -2 -4 -4 -5 -3 -3 -5 -6 1 1 7 -0 -2 -3 2 3 -1 3 1 -0 -3 4 -1 2 3 -2 2 1 0
-4 -5 4 -1 -5 -6 -5 -13 -9 -0 2 2 -1 0 -5 -5 -3 -3 -2 -4 -3 -2 -1 -3 -2 -2 -1 -2 -4 -6 -2 -0 2 -5 -2 -5 -2 -1 -1 -3 3 -3 -2 -3 1 1 1 3 3
-7 1 -2 -7 7 -6 2 -35 -18 1 -0 4 -1 -1 -4 -2 -2 -4 -1 -2 -3 -4 -3 -3 -3 -3 -1 -4 -2 0 0 1 1 -1 0 -3 -5 -5 -3 -2 -1 0 0 -1 1 -2 1 2 2
Height
5878 5878 5878 5878 5880 5875 5871 5871 5871 5872 5872 5872 5873 5875 5876 5875 5875 5875 5874 5873 5873 5874 5874 5872 5871 5871 5872 5871 5870 5870 5870 5870 5870 5870 5869 5869 5869 5869 5868 5867 5867 5865 5864 5864 5863 5862 5861 5860 5860
5874 5874 5874 5874 5874 5871 5864 5867 5866 5868 5869 5868 5869 5870 5870 5870 5870 5870 5870 5870 5870 5871 5871 5871 5869 5868 5868 5868 5868 5867 5866 5867 5867 5867 5867 5866 5866 5865 5865 5864 5863 5863 5862 5862 5861 5860 5859 5858 5858
5870 5869 5870 5869 5867 5865 5860 5861 5861 5862 5864 5864 5864 5865 5865 5865 5866 5865 5866 5866 5867 5867 5867 5867 5866 5864 5864 5864 5864 5863 5863 5863 5864 5864 5864 5863 5862 5862 5862 5862 5862 5861 5860 5859 5858 5857 5856 5856 5856
5864 5864 5864 5863 5858 5858 5855 5855 5856 5857 5858 5860 5861 5861 5861 5861 5862 5861 5861 5863 5863 5863 5863 5862 5862 5860 5860 5860 5860 5860 5859 5859 5860 5860 5861 5860 5859 5859 5859 5858 5858 5859 5858 5857 5855 5854 5853 5853 5853
5858 5857 5856 5855 5851 5850 5850 5851 5852 5852 5855 5856 5857 5858 5857 5856 5857 5857 5858 5859 5860 5859 5859 5858 5858 5856 5855 5855 5855 5856 5856 5856 5856 5856 5857 5857 5857 5856 5856 5855 5855 5855 5855 5854 5853 5853 5851 5850 5851
5852 5852 5851 5849 5846 5846 5846 5847 5848 5848 5851 5852 5852 5852 5853 5852 5853 5854 5855 5855 5855 5854 5854 5853 5852 5851 5850 5850 5851 5851 5851 5851 5851 5851 5852 5853 5853 5854 5853 5852 5852 5851 5851 5851 5850 5850 5848 5848 5848
5848 5847 5846 5844 5843 5842 5842 5842 5843 5844 5846 5846 5847 5847 5848 5847 5849 5850 5851 5850 5850 5849 5849 5848 5847 5846 5847 5847 5847 5847 5847 5847 5846 5846 5847 5847 5848 5848 5848 5848 5848 5847 5847 5847 5847 5846 5846 5844 5844
5843 5844 5842 5841 5840 5839 5838 5837 5838 5839 5839 5840 5841 5841 5842 5844 5844 5844 5845 5844 5844 5844 5843 5843 5844 5844 5842 5843 5843 5843 5842 5842 5842 5841 5841 5841 5842 5842 5842 5843 5843 5842 5842 5842 5842 5842 5842 5841 5840
5839 5840 5838 5837 5836 5835 5834 5835 5835 5835 5833 5833 5835 5835 5836 5838 5838 5838 5838 5837 5838 5838 5838 5839 5838 5838 5837 5837 5837 5837 5837 5837 5837 5836 5836 5835 5835 5836 5837 5837 5837 5837 5836 5837 5837 5837 5836 5836 5835
5834 5834 5834 5833 5833 5832 5831 5831 5832 5830 5829 5827 5828 5830 5831 5831 5831 5830 5831 5832 5832 5832 5832 5832 5832 5832 5832 5831 5831 5830 5829 5830 5830 5830 5830 5830 5829 5829 5829 5830 5830 5830 5830 5830 5830 5830 5830 5830 5830
5828 5828 5828 5828 5828 5827 5827 5828 5827 5827 5823 5823 5823 5823 5824 5825 5824 5823 5826 5827 5826 5826 5825 5825 5826 5826 5826 5826 5825 5825 5824 5823 5823 5823 5823 5823 5822 5823 5822 5822 5822 5822 5823 5823 5823 5823 5823 5824 5824
5821 5822 5822 5821 5821 5821 5821 5821 5822 5821 5820 5818 5818 5816 5815 5815 5817 5821 5821 5821 5821 5821 5820 5819 5820 5820 5819 5819 5819 5818 5817 5816 5815 5815 5815 5815 5815 5814 5814 5814 5815 5814 5815 5816 5815 5815 5814 5815 5816
5813 5814 5815 5815 5814 5815 5815 5813 5813 5814 5813 5813 5812 5811 5809 5807 5809 5810 5813 5813 5812 5812 5812 5812 5812 5812 5811 5810 5809 5810 5810 5809 5807 5806 5806 5805 5806 5806 5805 5806 5806 5806 5807 5808 5807 5806 5805 5804 5806
5806 5806 5806 5806 5806 5807 5808 5807 5805 5806 5805 5803 5803 5803 5802 5804 5803 5800 5799 5799 5799 5800 5801 5802 5802 5801 5801 5800 5799 5799 5800 5800 5799 5798 5796 5796 5796 5796 5797 5797 5797 5798 5798 5797 5798 5798 5797 5795 5796
5797 5798 5797 5798 5798 5798 5799 5796 5798 5796 5795 5794 5794 5792 5791 5795 5793 5792 5792 5790 5788 5788 5788 5787 5788 5788 5787 5787 5786 5786 5787 5788 5789 5788 5786 5786 5786 5786 5787 5786 5786 5787 5788 5788 5788 5788 5787 5786 5786
5788 5789 5790 5790 5790 5789 5790 5787 5788 5787 5784 5786 5785 5783 5784 5784 5783 5782 5781 5781 5780 5779 5779 5778 5777 5777 5775 5774 5774 5773 5773 5773 5775 5776 5775 5775 5774 5774 5774 5774 5775 5776 5776 5776 5777 5777 5777 5777 5776
5779 5779 5781 5779 5781 5778 5780 5778 5778 5775 5774 5775 5773 5772 5772 5772 5772 5771 5770 5769 5769 5768 5767 5766 5765 5764 5762 5761 5759 5758 5757 5757 5758 5760 5761 5761 5762 5762 5761 5761 5761 5762 5763 5763 5766 5766 5765 5765 5765
5770 5773 5770 5772 5767 5768 5768 5768 5769 5767 5766 5765 5763 5763 5762 5762 5761 5760 5759 5758 5758 5757 5755 5754 5753 5751 5750 5749 5745 5743 5742 5742 5741 5741 5743 5744 5745 5747 5748 5748 5747 5747 5748 5750 5752 5754 5754 5755 5755
5763 5762 5762 5761 5760 5757 5758 5758 5757 5757 5756 5754 5754 5753 5752 5750 5750 5749 5748 5747 5745 5743 5742 5741 5740 5738 5736 5733 5730 5728 5726 5724 5724 5724 5724 5724 5726 5727 5730 5732 5733 5733 5733 5735 5738 5740 5742 5743 5744
5753 5752 5752 5750 5749 5749 5748 5750 5748 5748 5747 5746 5743 5742 5741 5740 5739 5737 5735 5733 5732 5730 5728 5726 5723 5721 5719 5716 5714 5712 5709 5709 5707 5706 5706 5706 5706 5708 5711 5713 5715 5718 5717 5718 5722 5725 5727 5729 5731
5743 5742 5743 5742 5740 5739 5738 5739 5739 5739 5737 5735 5734 5732 5731 5729 5726 5724 5722 5720 5717 5714 5711 5708 5706 5703 5701 5698 5697 5695 5693 5691 5691 5690 5689 5689 5689 5691 5693 5695 5697 5699 5702 5702 5704 5708 5712 5714 5717
5732 5734 5733 5732 5732 5730 5730 5730 5728 5727 5727 5723 5721 5720 5719 5717 5715 5712 5710 5707 5703 5700 5697 5694 5691 5688 5686 5682 5680 5679 5678 5675 5674 5674 5675 5674 5675 5676 5679 5681 5682 5683 5684 5685 5687 5690 5695 5698 5701
5723 5724 5724 5723 5722 5721 5720 5719 5720 5717 5715 5710 5709 5706 5704 5701 5699 5697 5695 5693 5690 5686 5683 5679 5676 5673 5671 5668 5664 5663 5662 5660 5660 5661 5661 5660 5662 5663 5667 5669 5670 5670 5670 5671 5671 5674 5678 5681 5686
5712 5713 5713 5713 5712 5712 5711 5711 5713 5708 5704 5700 5697 5695 5693 5691 5689 5686 5684 5680 5678 5675 5671 5667 5663 5660 5657 5655 5652 5650 5649 5648 5647 5647 5647 5648 5649 5651 5655 5657 5658 5657 5657 5658 5658 5659 5662 5665 5669
5701 5702 5703 5703 5701 5702 5701 5700 5702 5699 5693 5689 5686 5684 5682 5680 5677 5675 5672 5669 5666 5663 5660 5656 5653 5650 5646 5643 5640 5638 5638 5637 5635 5636 5636 5636 5635 5639 5644 5646 5646 5646 5645 5646 5645 5645 5647 5650 5654
5691 5691 5691 5689 5690 5689 5690 5690 5691 5690 5683 5678 5674 5672 5670 5668 5665 5663 5660 5657 5654 5651 5649 5646 5643 5641 5638 5633 5629 5628 5625 5625 5626 5623 5622 5624 5625 5628 5634 5634 5634 5634 5634 5634 5634 5633 5634 5635 5639
5678 5679 5679 5676 5677 5676 5679 5680 5682 5680 5671 5666 5664 5661 5659 5657 5654 5653 5650 5647 5644 5641 5639 5637 5634 5631 5629 5626 5620 5619 5615 5614 5616 5615 5614 5615 5617 5621 5623 5624 5625 5626 5626 5625 5624 5622 5622 5623 5625
5668 5668 5666 5665 5665 5663 5667 5669 5668 5669 5661 5657 5654 5651 5648 5646 5645 5643 5641 5638 5635 5633 5630 5627 5624 5621 5619 5616 5613 5610 5606 5605 5605 5606 5607 5608 5609 5612 5614 5616 5617 5618 5618 5617 5614 5612 5610 5611 5612
5653 5653 5654 5653 5654 5652 5653 5656 5657 5653 5651 5647 5644 5641 5639 5637 5636 5634 5632 5630 5627 5625 5621 5618 5616 5613 5610 5608 5605 5602 5599 5596 5595 5597 5599 5602 5602 5603 5605 5607 5609 5610 5609 5607 5605 5602 5600 5599 5600
5639 5640 5642 5641 5644 5642 5639 5645 5642 5642 5640 5638 5636 5633 5630 5628 5627 5626 5623 5621 5619 5616 5613 5610 5607 5604 5601 5599 5597 5595 5593 5589 5586 5587 5589 5592 5595 5595 5596 5599 5600 5601 5600 5599 5596 5594 5592 5590 5589